Springfield, IL

12:38 AM CDT on May 27, 2017 (GMT -0500)
Capital

Weather History for KSPI - August, 2012

Change the Weather History Date:

Monday, August 13, 2012

  Actual Average Record
Temperature  
Mean Temperature 72 °F 75 °F  
Max Temperature 80 °F 85 °F 103 °F (1936)
Min Temperature 64 °F 64 °F 43 °F (1964)
Degree Days  
Heating Degree Days 0 0  
Month to date heating degree days 0  
Since 1 June heating degree days 16  
Since 1 July heating degree days 1  
Cooling Degree Days 7 10  
Month to date cooling degree days 154 130  
Year to date cooling degree days 1231 809  
Since 1 June cooling degree days 974 705  
Growing Degree Days 21 (Base 50)    
Moisture  
Dew Point 61 °F    
Average Humidity 71    
Maximum Humidity 87    
Minimum Humidity 54    
Precipitation  
Precipitation 0.01 in 0.10 in 1.74 in (1905)
Month to date precipitation 0.97 1.41  
Year to date precipitation 15.76 23.82  
Snow  
Snow 0.00 in 0.00 in 0.00 in ()
Month to date snowfall 0.0 0.0  
Since 1 June snowfall 0.0 0.0  
Since 1 July snowfall 0.0 0.0  
Snow Depth 0.00 in    
Sea Level Pressure  
Sea Level Pressure 29.92 in    
Wind  
Wind Speed 8 mph (NE)    
Max Wind Speed 16 mph    
Max Gust Speed 22 mph    
Visibility 10 miles    
Events Rain , Thunderstorm    
T = Trace of Precipitation, MM = Missing Value Source: NWS Daily Summary

Daily Weather History Graph

Daily Weather History Graph

Search for Another Location

Airport or City:

Trip Planner

Search our weather history database for the weather conditions in past years. The results will help you decide how hot, cold, wet, or windy it might be!

Date:

Astronomy

Aug. 13, 2012 Rise Set
Actual Time 6:09 AM CDT 7:57 PM CDT
Civil Twilight 5:40 AM CDT 8:26 PM CDT
Nautical Twilight 5:04 AM CDT 9:01 PM CDT
Astronomical Twilight 4:26 AM CDT 9:38 PM CDT
Moon 2:12 AM CDT (8/13) 5:08 PM CDT (8/13)
Length of Visible Light 14h 45m
Length of Day
13h 47m
Waning Crescent, 16% of the Moon is Illuminated
Aug 13
Waning Crescent
Aug 17
New
Aug 24
First Quarter
Aug 31
Full
Sep 8
Last Quarter

Hourly Weather History & Observations

Time (CDT) Temp. Dew Point Humidity Pressure Visibility Wind Dir Wind Speed Gust Speed Precip Events Conditions
12:26 AM 64.4 °F 62.6 °F 94% 29.98 in 9.0 mi NNE 6.9 mph - 0.02 in Rain Light Rain
12:52 AM 64.9 °F 62.1 °F 90% 29.95 in 10.0 mi ESE 8.1 mph - 0.04 in Rain Light Rain
1:25 AM 66.2 °F 60.8 °F 83% 29.94 in 10.0 mi ESE 6.9 mph - 0.01 in Rain , Thunderstorm Light Rain
1:52 AM 64.9 °F 61.0 °F 87% 29.91 in 10.0 mi ESE 10.4 mph - 0.01 in   Overcast
2:36 AM 64.4 °F 60.8 °F 88% 29.91 in 10.0 mi ESE 8.1 mph - N/A Thunderstorm Overcast
2:52 AM 64.9 °F 59.0 °F 81% 29.92 in 10.0 mi ENE 6.9 mph - N/A Thunderstorm Thunderstorm
3:32 AM 64.4 °F 60.8 °F 88% 29.92 in 10.0 mi East 10.4 mph - N/A Rain Light Rain
3:52 AM 64.0 °F 59.0 °F 84% 29.90 in 10.0 mi ESE 12.7 mph - 0.00 in   Overcast
4:52 AM 64.0 °F 59.0 °F 84% 29.88 in 10.0 mi SE 11.5 mph - N/A   Overcast
5:52 AM 64.0 °F 59.0 °F 84% 29.87 in 10.0 mi SE 11.5 mph 18.4 mph N/A   Overcast
6:52 AM 64.9 °F 60.1 °F 84% 29.87 in 10.0 mi SE 8.1 mph - N/A   Overcast
7:52 AM 66.9 °F 60.1 °F 79% 29.86 in 10.0 mi SSE 10.4 mph - N/A   Overcast
8:52 AM 70.0 °F 61.0 °F 73% 29.87 in 10.0 mi South 6.9 mph - N/A   Overcast
9:52 AM 73.0 °F 62.1 °F 68% 29.87 in 10.0 mi SSE 8.1 mph - N/A   Overcast
10:52 AM 75.9 °F 62.1 °F 62% 29.88 in 10.0 mi SW 8.1 mph - N/A   Scattered Clouds
11:52 AM 77.0 °F 62.1 °F 60% 29.88 in 10.0 mi SSW 3.5 mph - N/A   Mostly Cloudy
12:52 PM 78.1 °F 61.0 °F 56% 29.88 in 10.0 mi North 8.1 mph - N/A   Overcast
1:52 PM 75.9 °F 62.1 °F 62% 29.88 in 10.0 mi NNW 8.1 mph - N/A   Overcast
2:52 PM 75.0 °F 62.1 °F 64% 29.89 in 10.0 mi NNW 8.1 mph - N/A   Overcast
3:52 PM 73.9 °F 62.1 °F 66% 29.90 in 10.0 mi North 10.4 mph - N/A   Overcast
4:52 PM 73.0 °F 61.0 °F 66% 29.90 in 9.0 mi North 10.4 mph - N/A   Overcast
5:52 PM 73.0 °F 61.0 °F 66% 29.91 in 10.0 mi North 10.4 mph - N/A   Overcast
6:37 PM 71.6 °F 60.8 °F 69% 29.93 in 10.0 mi North 10.4 mph - N/A   Overcast
6:52 PM 72.0 °F 61.0 °F 68% 29.92 in 10.0 mi North 12.7 mph - N/A   Overcast
7:52 PM 69.1 °F 61.0 °F 75% 29.94 in 10.0 mi North 5.8 mph - N/A   Overcast
8:20 PM 69.8 °F 60.8 °F 73% 29.95 in 10.0 mi North 6.9 mph - N/A   Overcast
8:52 PM 68.0 °F 61.0 °F 78% 29.95 in 10.0 mi NNE 8.1 mph - N/A   Overcast
9:52 PM 68.0 °F 61.0 °F 78% 29.97 in 10.0 mi NNW 5.8 mph - N/A   Overcast
10:19 PM 68.0 °F 60.8 °F 78% 29.98 in 10.0 mi North 6.9 mph - N/A   Overcast
10:29 PM 66.2 °F 60.8 °F 83% 29.98 in 10.0 mi North 8.1 mph - N/A   Overcast
10:52 PM 66.9 °F 61.0 °F 81% 29.98 in 10.0 mi NNE 6.9 mph - N/A   Overcast
11:52 PM 66.0 °F 61.0 °F 84% 29.98 in 10.0 mi NNW 5.8 mph - N/A   Overcast